Weather History for Houghton Lake, MI

Change the Weather History Date:

Friday, May 10, 2013

  Actual Average Record
Temperature  
Mean Temperature 46 °F 52 °F  
Max Temperature 54 °F 65 °F 89 °F (1993)
Min Temperature 38 °F 40 °F 17 °F (1947)
Degree Days  
Heating Degree Days 19 13  
Month to date heating degree days 52 145  
Since 1 July heating degree days 7351 7806  
Cooling Degree Days 0 0  
Month to date cooling degree days 6 0  
Year to date cooling degree days 6 2  
Moisture  
Dew Point 39 °F    
Average Humidity 86    
Maximum Humidity 100    
Minimum Humidity 71    
Precipitation  
Precipitation 0.82 in 0.09 in 1.16 in (1963)
Month to date precipitation 0.82 0.82  
Year to date precipitation 13.12 7.86  
Sea Level Pressure  
Sea Level Pressure 29.93 in    
Wind  
Wind Speed 11 mph (NE)    
Max Wind Speed 20 mph    
Max Gust Speed 25 mph    
Visibility 8 miles    
Events Rain    
T = Trace of Precipitation, MM = Missing Value Source: NWS Daily Summary

Daily Weather History Graph

Daily Weather History Graph

Search for Another Location

Airport:

Trip Planner

Search our weather history database for the weather conditions in past years. The results will help you decide how hot, cold, wet, or windy it might be!

Date:

Astronomy

May. 10, 2013 Rise Set
Actual Time 6:17 AM EDT 8:53 PM EDT
Civil Twilight 5:44 AM EDT 9:26 PM EDT
Nautical Twilight 5:02 AM EDT 10:08 PM EDT
Astronomical Twilight 4:15 AM EDT 10:56 PM EDT
Moon 6:40 AM EDT (5/10) 9:43 PM EDT (5/10)
Length of Visible Light 15h 42m
Length of Day
14h 36m
New Moon, 0% of the Moon is Illuminated
May 10
New Moon
May 18
First Quarter
May 25
Full
May 31
Last Quarter
Jun 8
New

Hourly Weather History & Observations

Time (EDT) Temp. Windchill Dew Point Humidity Pressure Visibility Wind Dir Wind Speed Gust Speed Precip Events Conditions
12:53 AM 53.6 °F - 44.6 °F 72% 29.96 in 10.0 mi ENE 8.1 mph - N/A   Overcast
1:53 AM 53.1 °F - 46.0 °F 77% 29.96 in 10.0 mi ENE 12.7 mph - 0.00 in Rain Light Rain
2:53 AM 51.1 °F - 46.0 °F 83% 29.94 in 10.0 mi NE 10.4 mph - 0.01 in   Overcast
3:53 AM 50.0 °F - 44.6 °F 82% 29.92 in 10.0 mi ENE 18.4 mph 21.9 mph N/A   Overcast
4:53 AM 46.0 °F 39.6 °F 39.9 °F 79% 29.92 in 10.0 mi ENE 15.0 mph 20.7 mph 0.00 in Rain Light Rain
5:53 AM 43.0 °F 36.0 °F 41.0 °F 93% 29.91 in 6.0 mi NE 13.8 mph 23.0 mph 0.04 in Rain Light Rain
6:13 AM 42.8 °F 35.8 °F 41.0 °F 93% 29.90 in 6.0 mi ENE 13.8 mph - 0.02 in Rain Rain
6:53 AM 41.0 °F 34.3 °F 39.9 °F 96% 29.91 in 6.0 mi NE 11.5 mph 23.0 mph 0.07 in Rain Rain
7:53 AM 39.9 °F 31.8 °F 39.0 °F 97% 29.92 in 4.0 mi NE 15.0 mph - 0.14 in Rain Rain
8:17 AM 39.2 °F 31.2 °F 39.2 °F 100% 29.91 in 2.5 mi NE 13.8 mph 19.6 mph 0.10 in Rain Heavy Rain
8:34 AM 39.2 °F 32.0 °F 37.4 °F 93% 29.91 in 4.0 mi NE 11.5 mph 19.6 mph 0.17 in Rain Rain
8:53 AM 39.9 °F 33.4 °F 37.9 °F 93% 29.93 in 3.0 mi NE 10.4 mph 19.6 mph 0.22 in Rain Rain
9:12 AM 39.2 °F 30.8 °F 37.4 °F 93% 29.92 in 5.0 mi ENE 15.0 mph 23.0 mph 0.03 in Rain Rain
9:53 AM 39.9 °F 31.8 °F 37.9 °F 93% 29.93 in 10.0 mi NE 15.0 mph 24.2 mph 0.07 in Rain Light Rain
10:00 AM 39.2 °F 31.2 °F 37.4 °F 93% 29.91 in 8.0 mi NE 13.8 mph 19.6 mph 0.00 in Rain Light Rain
10:53 AM 39.0 °F 32.3 °F 37.0 °F 93% 29.93 in 6.0 mi NE 10.4 mph - 0.03 in Rain Light Rain
11:46 AM 39.2 °F 31.2 °F 37.4 °F 93% 29.91 in 10.0 mi ENE 13.8 mph 21.9 mph 0.04 in Rain Light Rain
11:53 AM 39.9 °F 33.9 °F 37.9 °F 93% 29.93 in 10.0 mi NE 9.2 mph - 0.04 in Rain Light Rain
12:53 PM 39.2 °F 32.0 °F 37.4 °F 93% 29.92 in 5.0 mi NE 11.5 mph 17.3 mph N/A Rain Rain
1:53 PM 39.9 °F 32.9 °F 37.9 °F 93% 29.94 in 8.0 mi NE 11.5 mph 18.4 mph 0.11 in Rain Light Rain
2:09 PM 39.2 °F 32.0 °F 37.4 °F 93% 29.91 in 7.0 mi NE 11.5 mph - 0.02 in Rain Light Rain
2:12 PM 39.2 °F 33.0 °F 37.4 °F 93% 29.91 in 7.0 mi NE 9.2 mph - 0.03 in Rain Light Rain
2:53 PM 42.1 °F 34.9 °F 39.9 °F 92% 29.93 in 10.0 mi NE 13.8 mph - 0.05 in Rain Light Rain
3:03 PM 42.8 °F 36.6 °F 39.2 °F 87% 29.91 in 10.0 mi NE 11.5 mph - 0.00 in   Overcast
3:53 PM 42.1 °F 36.1 °F 39.9 °F 92% 29.93 in 10.0 mi NE 10.4 mph - 0.00 in   Overcast
4:45 PM 42.8 °F 36.6 °F 39.2 °F 87% 29.90 in 10.0 mi NE 11.5 mph - 0.00 in   Overcast
4:53 PM 42.1 °F 36.1 °F 39.9 °F 92% 29.93 in 10.0 mi NNE 10.4 mph 19.6 mph 0.00 in   Overcast
5:53 PM 42.1 °F 36.1 °F 39.9 °F 92% 29.93 in 10.0 mi NE 10.4 mph - N/A   Overcast
6:43 PM 42.8 °F 38.0 °F 39.2 °F 87% 29.90 in 10.0 mi NNE 8.1 mph - N/A   Overcast
6:53 PM 42.1 °F 37.1 °F 39.0 °F 89% 29.93 in 10.0 mi NNE 8.1 mph - N/A   Overcast
7:53 PM 41.0 °F 35.2 °F 37.9 °F 89% 29.94 in 10.0 mi NE 9.2 mph - N/A   Overcast
8:53 PM 39.0 °F 32.8 °F 37.0 °F 93% 29.96 in 10.0 mi NNE 9.2 mph - N/A   Overcast
9:02 PM 37.4 °F 30.8 °F 37.4 °F 100% 29.93 in 10.0 mi North 9.2 mph 16.1 mph N/A   Overcast
9:53 PM 37.9 °F 30.9 °F 36.0 °F 93% 29.97 in 10.0 mi North 10.4 mph - N/A   Overcast
10:32 PM 37.4 °F 30.8 °F 35.6 °F 93% 29.93 in 10.0 mi North 9.2 mph - N/A   Overcast
10:53 PM 37.9 °F 33.5 °F 36.0 °F 93% 29.96 in 10.0 mi NNE 5.8 mph - N/A   Overcast
11:29 PM 37.4 °F 32.8 °F 35.6 °F 93% 29.92 in 10.0 mi North 5.8 mph - N/A   Overcast
11:38 PM 37.4 °F 33.8 °F 35.6 °F 93% 29.92 in 10.0 mi North 4.6 mph - N/A   Overcast
11:53 PM 37.9 °F 35.5 °F 35.1 °F 89% 29.95 in 10.0 mi North 3.5 mph - N/A   Overcast